Location: Unspecified
(0.0000°N, 0.0000°E)
Time: 16:04:46
(UTC+00:00)

OBJECT C - Pass Details

Date: 15 September 2024
Orbit: 557 x 585 km, 62.0° (Epoch: 11 October)

Event Time Altitude Azimuth Distance (km) Brightness Sun altitude
Rises 20:14:18 0° 235° (SW) 2,732 ? -34.8°
Reaches altitude 10° 20:17:17 10° 258° (WSW) 1,835 ? -35.5°
Enters shadow 20:18:42 14° 277° (W) 1,581 ? -35.9°
